Torna al catalogo

COSMOS 2481

AttivoNavigazionePO
NORAD 38733·PAYLOAD·🇷🇺 Russia

Lanciato Jul 28, 2012 da Plesetsk Cosmodrome

Loading…

Prossimi Passaggi (prossime 24 ore)

TLE

AggiornatoSource: Space-Track

Epoca: Sep 14, 2026, 14:24 UTC

1 38733U 12041A   26257.60033472 -.00000027  00000-0 -26341-3 0  9999
2 38733  82.4792  19.4640 0018084 239.3997 120.5299 12.42436297640856

Traccia COSMOS 2481 in tempo reale con AllMySat

Download on the App Store